Probability
0 0 0 0 0 0 0 0 0 0 0 0 0 0 0 0 0 0 0 0 0 3 3 0 0 0 0 3 3 3 3 3 3 3 0 0 0 0 0 0 0 0 0
0 0 0 0 0 0 0 0 0 0 0 0 0 0 0 0 0 0 0 0 0 0 0 0 0 0 0 0 0 0 3 3 0 0 3 0 0 0 0 0 0 0 0
0 0 0 0 0 0 0 0 0 0 0 0 0 0 0 0 0 0 0 0 0 0 0 0 0 3 0 0 0 0 3 3 3 3 0 3 0 0 0 0 0 0 0
0 0 0 0 0 0 0 0 0 0 0 0 0 0 0 0 0 0 0 0 0 0 0 0 0 0 0 0 0 0 3 3 0 0 0 0 0 0 0 0 0 0 0
0 0 0 0 0 0 0 0 0 0 0 0 0 0 0 0 0 0 0 0 0 0 0 0 0 0 0 0 0 0 0 0 0 0 0 0 0 0 0 0 0 0 0
0 0 0 0 0 0 0 0 0 0 0 0 0 0 0 0 0 0 0 0 0 0 0 0 0 0 0 0 0 0 0 0 0 0 0 0 0 0 0 0 0 0 0
0 0 0 0 0 0 0 0 0 0 0 0 0 0 0 0 0 0 0 0 0 0 0 0 0 0 0 0 0 0 0 0 0 0 0 0 0 0 0 0 0 0 0
0 0 0 0 0 0 0 0 0 0 0 0 0 0 0 0 0 0 0 0 0 0 0 0 0 0 0 0 0 0 0 0 0 0 0 0 0 0 0 0 0 0 0
0 0 0 0 0 0 0 0 0 0 0 0 0 0 0 0 0 0 0 0 0 0 0 0 0 0 0 0 0 0 0 0 0 0 0 0 0 0 0 0 0 0 0
0 0 0 0 0 0 0 0 0 0 0 0 0 0 0 0 0 0 0 0 0 0 0 0 0 0 0 0 0 0 0 0 0 0 0 0 0 0 0 0 0 0 0
0 0 0 0 0 0 0 0 0 0 0 0 0 0 0 0 0 0 0 0 0 0 0 0 0 0 0 0 0 0 0 0 0 0 0 0 0 0 0 0 0 0 0
0 0 0 0 0 0 0 0 0 0 0 0 0 0 0 0 0 0 0 0 0 0 0 0 0 0 0 0 0 0 0 0 0 0 0 0 0 0 0 0 0 0 0
0 0 0 0 0 0 0 0 0 0 0 0 0 0 0 0 0 0 0 0 0 0 0 0 0 0 0 0 0 0 0 0 0 0 0 3 3 0 0 0 0 0 0
0 0 0 0 0 0 0 0 0 0 0 0 0 0 0 0 0 0 0 0 0 0 0 0 0 0 0 0 0 0 0 0 0 0 0 0 0 0 0 0 0 0 0
0 0 0 0 0 0 0 0 0 0 0 0 0 0 0 0 0 0 0 0 0 0 0 0 0 0 0 0 0 0 0 0 0 0 0 0 0 0 0 0 0 0 0
0 0 0 0 0 0 0 0 0 0 0 0 0 0 0 0 0 0 0 0 0 0 0 0 0 0 0 0 0 0 0 0 0 0 0 0 0 0 0 0 0 0 0
0 0 0 0 0 0 0 0 0 0 0 0 0 0 0 0 0 0 0 0 0 0 0 0 0 0 0 0 0 0 0 0 0 0 0 0 0 0 0 0 0 0 0
0 0 0 0 0 0 0 0 0 0 0 0 0 0 0 0 0 0 0 0 0 0 0 0 0 0 0 0 0 0 0 0 0 0 0 0 0 0 0 0 0 0 0
0 0 0 0 0 0 0 0 0 0 0 0 0 0 0 0 0 0 0 0 0 0 0 0 0 0 0 0 0 0 0 0 0 0 0 0 0 0 0 0 0 0 0
0 0 0 0 0 0 0 0 0 0 0 0 0 0 0 0 0 0 0 0 0 0 0 0 0 0 0 0 0 0 0 0 0 0 0 0 0 0 0 0 0 0 0
0 0 0 0 0 0 0 0 0 0 0 0 0 0 0 0 0 0 0 0 0 0 0 0 0 0 0 0 0 0 0 0 0 0 0 0 0 0 0 0 0 0 0
0 0 0 0 0 0 0 0 0 0 0 0 0 0 0 0 0 0 0 0 0 0 0 0 0 0 0 0 0 0 0 0 0 0 0 0 0 0 0 0 0 0 0
0 0 0 0 0 0 0 0 0 0 0 0 0 0 0 0 0 0 0 0 0 0 0 0 0 0 0 0 0 0 0 0 0 0 0 0 0 0 0 0 0 0 0
0 0 0 0 0 0 0 0 0 0 0 0 0 0 0 0 0 0 0 0 0 0 0 0 0 0 0 0 0 0 0 0 0 0 0 0 0 0 0 0 0 0 0
0 0 0 0 0 0 0 0 0 0 0 0 0 0 0 0 0 0 0 0 0 0 0 0 0 0 0 0 0 0 0 0 0 0 0 0 0 0 0 0 0 0 0
0 0 0 0 0 0 0 0 0 0 0 0 0 0 0 0 0 0 0 0 0 0 0 0 0 0 0 0 0 0 0 0 0 0 0 0 0 0 0 0 0 0 0
Height
5812 5813 5814 5814 5814 5815 5815 5815 5816 5816 5817 5817 5818 5819 5819 5820 5821 5821 5822 5822 5823 5824 5824 5825 5825 5826 5826 5826 5826 5826 5826 5826 5826 5826 5826 5826 5826 5825 5824 5824 5823 5822 5821
5804 5805 5805 5806 5806 5807 5807 5807 5808 5808 5809 5809 5810 5810 5811 5812 5812 5813 5814 5814 5815 5816 5817 5817 5818 5818 5819 5819 5819 5819 5819 5819 5819 5819 5819 5819 5819 5818 5818 5817 5817 5816 5815
5796 5796 5797 5797 5797 5798 5798 5798 5799 5799 5800 5800 5801 5802 5802 5803 5804 5805 5806 5806 5807 5807 5808 5809 5809 5810 5810 5811 5811 5811 5812 5812 5812 5812 5812 5812 5812 5811 5811 5811 5810 5809 5808
5787 5787 5788 5788 5788 5788 5788 5789 5789 5790 5790 5791 5792 5792 5793 5794 5795 5795 5796 5797 5798 5798 5799 5800 5801 5801 5802 5802 5803 5803 5804 5804 5804 5804 5804 5804 5804 5804 5803 5803 5803 5802 5802
5778 5778 5778 5778 5778 5778 5778 5779 5779 5779 5780 5781 5781 5782 5783 5784 5785 5785 5787 5787 5788 5788 5789 5790 5791 5792 5793 5793 5794 5794 5795 5795 5796 5796 5796 5796 5796 5796 5796 5795 5795 5795 5795
5767 5767 5768 5768 5768 5768 5768 5768 5768 5768 5769 5770 5770 5771 5772 5773 5774 5775 5776 5777 5778 5778 5779 5780 5781 5782 5783 5783 5784 5785 5786 5786 5787 5787 5787 5787 5787 5787 5787 5787 5787 5787 5787
5756 5756 5757 5756 5756 5756 5756 5756 5756 5756 5757 5757 5757 5759 5760 5761 5763 5764 5765 5766 5767 5767 5768 5769 5770 5771 5772 5773 5774 5775 5776 5777 5777 5777 5778 5778 5778 5778 5779 5779 5779 5779 5779
5745 5744 5744 5744 5744 5744 5744 5744 5744 5744 5745 5744 5745 5745 5747 5750 5751 5752 5753 5754 5754 5755 5756 5757 5758 5759 5761 5762 5763 5764 5765 5766 5767 5767 5768 5768 5769 5769 5769 5770 5770 5770 5770
5733 5732 5732 5732 5732 5732 5732 5731 5731 5731 5732 5732 5731 5731 5733 5736 5738 5740 5740 5741 5742 5743 5744 5745 5746 5747 5748 5750 5751 5752 5754 5755 5756 5757 5757 5758 5759 5759 5759 5760 5761 5761 5761
5722 5721 5720 5720 5720 5720 5720 5719 5719 5718 5718 5719 5718 5717 5718 5720 5723 5726 5728 5728 5729 5730 5731 5732 5734 5734 5736 5737 5739 5741 5742 5743 5744 5745 5746 5747 5748 5748 5749 5749 5750 5751 5751
5711 5710 5709 5709 5709 5708 5708 5707 5707 5706 5705 5705 5705 5705 5704 5704 5706 5709 5713 5716 5715 5716 5717 5718 5720 5721 5722 5724 5726 5728 5729 5730 5731 5733 5734 5735 5736 5737 5737 5738 5739 5740 5740
5700 5699 5698 5698 5697 5697 5696 5696 5695 5694 5692 5692 5691 5691 5691 5691 5692 5694 5697 5700 5701 5703 5703 5704 5706 5707 5709 5711 5712 5714 5715 5716 5718 5719 5721 5722 5724 5725 5725 5726 5727 5728 5729
5690 5688 5687 5687 5686 5685 5685 5684 5682 5681 5680 5679 5678 5678 5678 5678 5679 5680 5681 5684 5686 5689 5689 5691 5691 5693 5695 5696 5698 5699 5701 5702 5704 5706 5707 5709 5711 5712 5713 5714 5715 5716 5717
5679 5678 5676 5675 5674 5673 5673 5672 5670 5669 5668 5666 5666 5665 5664 5665 5665 5666 5668 5669 5671 5674 5675 5677 5678 5678 5679 5681 5683 5685 5686 5688 5689 5691 5693 5695 5696 5697 5699 5700 5701 5702 5704
5669 5667 5666 5664 5663 5662 5661 5660 5659 5657 5655 5654 5653 5652 5651 5651 5652 5653 5654 5655 5657 5659 5662 5663 5663 5664 5665 5666 5668 5670 5671 5673 5674 5676 5677 5679 5681 5682 5684 5685 5686 5688 5689
5659 5657 5656 5654 5653 5651 5650 5648 5647 5645 5643 5642 5641 5639 5639 5639 5639 5640 5641 5642 5643 5645 5647 5649 5649 5650 5650 5651 5653 5654 5656 5657 5659 5660 5662 5663 5665 5667 5668 5669 5671 5672 5674
5651 5649 5647 5645 5644 5642 5640 5638 5636 5634 5632 5631 5629 5628 5627 5627 5627 5627 5628 5629 5629 5630 5632 5635 5635 5635 5636 5637 5637 5638 5639 5641 5643 5644 5645 5647 5649 5650 5652 5653 5654 5656 5657
5644 5642 5639 5637 5635 5633 5631 5629 5627 5624 5622 5620 5619 5618 5617 5616 5616 5615 5616 5616 5616 5617 5618 5619 5620 5620 5621 5621 5622 5622 5623 5624 5626 5627 5628 5630 5631 5633 5635 5636 5637 5638 5640
5637 5634 5632 5630 5628 5625 5623 5620 5618 5615 5613 5610 5608 5607 5606 5605 5605 5604 5604 5604 5604 5603 5603 5604 5605 5605 5605 5605 5605 5605 5606 5607 5608 5610 5611 5612 5614 5615 5617 5619 5620 5621 5622
5630 5627 5625 5623 5620 5618 5615 5612 5609 5607 5604 5601 5599 5597 5596 5595 5594 5593 5592 5592 5591 5590 5590 5589 5589 5589 5589 5588 5588 5588 5589 5589 5590 5592 5593 5594 5596 5597 5599 5600 5602 5603 5604
5624 5621 5619 5616 5613 5611 5608 5605 5601 5598 5595 5592 5590 5588 5586 5584 5583 5582 5580 5579 5578 5577 5576 5575 5574 5574 5573 5572 5572 5571 5572 5572 5573 5574 5575 5576 5578 5579 5579 5581 5582 5583 5585
5617 5615 5612 5609 5606 5603 5600 5596 5593 5590 5587 5584 5581 5578 5576 5574 5572 5570 5568 5566 5564 5563 5562 5560 5559 5558 5557 5556 5555 5554 5554 5555 5557 5558 5557 5558 5558 5559 5560 5561 5562 5563 5564
5611 5608 5605 5602 5599 5595 5592 5588 5584 5581 5578 5574 5571 5568 5566 5563 5560 5558 5555 5553 5551 5549 5547 5545 5544 5542 5541 5540 5538 5538 5537 5536 5538 5537 5538 5540 5539 5540 5541 5541 5541 5542 5543
5604 5600 5597 5594 5590 5587 5583 5579 5575 5572 5568 5565 5561 5558 5555 5552 5549 5546 5543 5540 5537 5535 5533 5531 5529 5527 5524 5522 5520 5520 5519 5519 5519 5518 5518 5521 5520 5520 5521 5520 5519 5520 5521
5596 5593 5589 5585 5582 5578 5574 5570 5566 5562 5558 5555 5551 5548 5544 5541 5537 5534 5531 5528 5525 5521 5518 5515 5513 5510 5508 5506 5504 5502 5501 5501 5501 5500 5498 5499 5500 5500 5501 5499 5497 5497 5498
5588 5584 5581 5577 5573 5569 5564 5560 5556 5552 5549 5545 5541 5537 5533 5529 5525 5521 5518 5515 5511 5508 5504 5500 5497 5494 5491 5489 5486 5484 5483 5482 5482 5482 5480 5479 5479 5478 5481 5481 5477 5475 5476
Wind_Speed
36 37 37 37 37 37 37 36 37 36 36 37 37 36 36 36 36 36 36 36 36 35 34 34 33 33 32 32 32 31 31 31 30 30 30 30 30 30 29 29 28 27 26
38 38 39 39 39 39 38 38 38 38 37 38 38 38 38 38 38 37 37 37 37 37 36 35 35 35 34 34 34 34 33 33 32 32 32 32 31 31 30 30 29 28 27
38 39 39 40 40 41 41 41 41 41 40 40 40 40 40 40 40 40 39 39 39 38 38 37 37 37 36 36 35 35 35 34 34 33 33 33 33 32 32 31 30 30 29
39 40 40 41 41 42 43 43 43 43 43 43 43 43 43 42 42 43 42 42 42 41 40 40 40 39 39 38 38 38 37 37 36 36 35 35 34 34 33 32 32 32 31
42 42 42 43 43 44 44 45 45 46 46 45 45 45 45 45 45 45 45 44 44 43 43 42 42 41 40 40 40 40 39 39 38 38 37 36 36 35 34 34 33 33 32
45 46 46 46 47 47 47 48 48 49 49 49 49 48 48 47 47 46 47 48 47 46 45 44 44 43 42 42 42 41 40 40 39 39 38 38 37 36 36 35 34 34 34
48 48 48 49 50 49 49 49 50 50 51 51 52 51 51 51 50 48 48 49 49 49 49 48 46 45 45 45 45 43 42 42 41 41 40 39 39 38 37 36 35 35 35
48 48 49 49 48 48 49 49 49 49 50 52 53 54 54 53 52 52 51 51 51 51 51 51 51 51 49 48 46 45 44 44 44 43 42 41 40 40 39 39 38 37 36
47 47 47 47 47 47 48 49 49 50 50 51 53 55 56 56 54 53 53 53 52 52 52 53 53 53 53 52 50 48 47 45 45 44 43 42 42 42 42 42 41 39 38
47 47 48 48 48 48 48 48 49 50 50 51 52 53 55 55 55 54 54 54 54 54 54 54 54 53 54 54 53 51 50 48 47 46 46 45 45 44 44 44 43 42 40
47 46 46 47 47 47 48 48 49 50 50 51 52 52 52 53 54 55 55 55 55 55 54 54 54 53 54 54 54 54 53 51 49 48 48 48 46 45 45 44 44 43 43
46 46 46 46 46 46 46 46 48 49 49 50 51 52 52 52 54 55 56 55 54 54 54 54 55 55 54 54 54 55 54 53 52 51 49 49 48 46 45 45 45 45 45
44 44 45 45 45 45 45 46 46 47 48 49 49 50 52 53 53 54 54 54 54 54 54 54 55 56 56 55 54 55 54 54 53 53 52 51 50 49 49 48 48 48 48
42 42 43 43 44 44 44 44 45 45 46 47 49 50 51 53 54 54 54 54 54 54 53 53 54 54 55 56 57 57 57 55 53 53 53 53 53 53 53 52 52 51 50
39 40 41 42 43 43 43 44 44 45 45 46 47 48 50 51 51 52 54 55 54 53 53 53 53 54 55 57 58 59 58 57 55 55 55 55 55 55 55 54 54 53 52
35 36 37 37 38 40 41 42 43 44 44 45 46 46 47 49 49 51 52 52 53 54 52 52 53 54 55 56 58 59 59 58 56 56 57 58 58 57 56 55 56 55 55
33 33 34 34 35 36 38 39 40 41 42 42 43 43 44 46 48 49 50 50 51 51 52 52 52 53 55 56 57 57 58 60 60 59 58 59 59 59 57 56 57 58 58
31 31 32 32 33 34 35 36 38 38 39 40 41 41 42 43 44 45 47 49 50 51 52 52 52 53 54 55 57 58 60 61 61 61 60 59 59 59 59 59 58 58 59
30 30 30 31 32 32 33 35 36 36 37 38 39 40 41 42 42 43 45 46 48 50 51 52 52 54 55 56 58 59 59 60 61 62 61 61 60 60 59 59 59 59 59
28 28 28 29 30 30 32 33 34 35 36 37 38 39 40 41 42 44 45 47 49 50 50 51 52 53 54 55 56 57 58 59 60 61 61 61 61 61 61 61 60 60 60
26 27 27 28 29 30 31 33 34 35 35 36 37 38 40 41 42 44 45 46 48 49 50 51 52 53 53 54 55 56 57 57 58 59 60 61 62 62 63 62 62 62 62
27 28 29 29 30 31 32 33 34 34 34 35 36 37 39 40 41 43 44 46 47 47 49 51 52 53 53 54 55 56 56 56 56 57 58 59 61 62 63 62 62 62 63
28 29 30 31 32 33 34 34 35 35 35 36 37 38 40 41 43 44 45 46 47 48 49 50 50 52 53 54 55 55 55 55 56 57 58 58 59 60 62 63 64 64 63
30 31 32 32 33 34 35 36 36 36 37 37 38 39 40 41 42 44 45 45 46 47 48 49 50 51 51 52 53 54 55 56 57 58 60 59 60 60 62 65 66 66 65
31 32 32 33 34 35 36 37 37 37 37 38 39 39 40 41 42 43 43 44 45 46 47 49 50 51 51 52 53 54 55 56 57 58 59 59 59 60 60 62 64 66 66
32 33 34 35 36 36 37 37 38 38 38 38 39 40 41 42 43 43 44 44 45 46 47 48 50 51 52 53 54 54 55 56 56 57 58 59 59 60 59 59 60 61 62
Wind_Direction
266 266 267 267 268 268 268 269 269 269 269 268 268 267 266 265 265 267 267 267 266 267 267 267 267 268 268 269 269 270 271 272 273 275 277 279 281 283 284 286 287 287 289
267 267 267 267 268 268 268 269 269 269 268 268 267 267 267 266 265 267 267 267 267 266 266 266 267 268 268 269 269 269 270 271 272 274 276 278 279 280 281 283 284 284 286
267 267 267 267 268 268 268 268 268 268 267 267 267 267 266 266 265 265 266 266 266 266 266 267 267 267 268 268 268 269 270 271 272 274 276 276 277 278 279 280 281 281 283
268 268 269 269 269 269 269 269 268 267 268 267 267 267 267 266 266 265 264 265 265 265 265 266 267 268 268 267 267 268 269 271 272 273 274 276 276 276 277 278 279 279 280
269 269 269 269 269 270 270 269 268 268 267 267 267 268 267 266 265 265 264 264 265 264 265 266 266 267 266 266 267 267 269 270 271 272 273 273 274 275 276 276 277 277 278
270 270 270 270 270 270 270 270 269 269 268 266 266 266 266 266 267 266 265 264 264 263 263 265 266 266 266 266 266 267 268 269 269 271 272 273 273 273 274 275 275 276 277
270 270 271 271 270 270 270 270 270 270 269 267 265 265 265 265 265 266 265 265 264 263 264 265 265 265 265 265 265 264 266 268 269 270 272 272 271 272 273 273 274 275 275
271 271 271 270 270 270 269 269 269 269 268 267 266 265 264 265 265 265 265 264 264 263 263 264 265 264 263 263 264 264 266 267 268 269 270 270 271 271 272 271 273 274 274
272 272 271 270 271 271 270 269 270 270 268 267 267 266 265 264 264 264 265 265 265 264 263 263 264 265 264 263 264 264 265 265 266 267 268 268 270 271 271 270 270 271 271
273 273 272 272 272 272 272 271 271 271 270 269 268 267 266 265 263 262 263 264 265 264 263 263 263 264 263 264 264 264 265 265 266 267 267 268 269 269 270 269 268 269 269
273 273 273 273 272 272 273 272 272 272 272 270 269 267 267 266 265 264 262 262 263 263 264 263 262 262 262 263 264 264 264 265 265 266 267 267 267 268 268 268 267 267 269
273 273 273 273 273 272 273 273 273 273 272 271 270 268 267 265 265 265 263 261 261 262 262 262 262 261 261 262 263 262 263 264 265 265 265 265 266 267 267 266 265 267 268
274 275 274 274 273 272 273 273 274 274 273 272 271 269 268 266 265 265 263 262 262 263 263 263 262 261 261 261 262 262 263 264 263 263 264 264 264 264 265 266 265 266 267
275 275 274 274 273 273 273 274 274 274 274 272 271 270 269 267 265 265 264 264 263 263 264 263 263 262 262 260 260 261 263 264 264 263 263 263 264 265 266 265 265 265 265
278 277 277 276 275 274 274 275 275 275 275 274 273 271 270 267 266 265 264 264 264 264 264 264 264 263 263 262 261 262 263 263 264 263 262 263 263 265 265 265 265 264 263
279 280 281 280 278 277 277 277 278 278 276 275 274 273 270 268 267 266 266 266 266 266 266 265 265 264 264 263 263 263 262 262 263 263 263 262 263 265 265 265 264 263 263
281 282 283 282 281 281 280 280 281 280 278 277 276 274 272 269 268 268 267 267 267 267 267 267 267 267 266 266 264 263 262 262 262 264 264 264 264 264 266 266 265 265 264
286 286 285 284 285 285 284 284 283 282 280 278 277 277 275 273 270 269 268 268 268 268 268 268 268 268 268 267 266 265 265 264 263 264 265 264 264 265 266 267 267 265 264
289 288 288 288 288 288 289 288 287 285 283 282 279 277 276 274 273 271 271 270 270 270 270 270 270 270 269 269 267 267 266 265 264 264 265 265 265 264 265 266 266 265 264
292 291 290 291 291 291 292 292 291 289 286 283 280 278 277 276 274 274 273 272 271 272 272 272 272 272 271 270 269 268 267 267 266 264 264 265 265 265 264 264 265 264 264
292 293 293 294 295 295 295 295 294 291 288 286 283 280 279 279 277 276 276 275 274 274 273 274 274 274 272 271 270 269 268 267 266 266 265 265 265 265 265 265 265 264 264
293 293 293 294 295 296 296 296 295 293 291 287 285 283 282 281 280 279 279 278 277 276 276 275 274 273 273 273 272 270 269 267 267 267 266 265 265 265 266 265 266 265 266
295 294 294 294 295 295 296 296 296 294 293 290 288 286 285 284 283 283 283 282 280 279 278 277 276 275 275 274 273 272 270 268 267 268 267 267 267 267 267 266 267 266 266
297 297 297 297 298 298 298 298 297 296 294 292 290 289 288 287 286 285 284 283 282 281 280 279 279 278 277 276 274 273 271 270 270 271 270 269 268 269 268 268 268 267 266
299 299 299 299 300 300 300 300 299 298 295 293 292 291 290 290 289 288 287 286 285 284 282 281 281 280 279 278 277 275 273 272 271 272 272 271 271 270 271 270 268 267 266
302 302 302 302 301 301 301 301 300 298 296 295 294 293 292 292 291 290 289 288 287 287 286 284 283 282 282 281 280 278 277 275 273 273 273 273 273 273 272 270 269 267 266